Location: Franzen
(48.6167°N, 15.3833°E)
Time: 13:44:49
(UTC+00:00)

Cosmos 1805 Rocket - Pass Details

Date: 22 April 2021
Orbit: 605 x 631 km, 82.5° (Epoch: 16 May)

Event Time Altitude Azimuth Distance (km) Brightness Sun altitude
Rises 21:36:03 0° 347° (NNW) 2,882 8.3 -26.3°
Reaches altitude 10° 21:38:18 10° 345° (NNW) 1,970 7.1 -26.4°
Enters shadow 21:41:58 56° 308° (NW) 728 4.0 -26.7°
